| time (UTC) | temp C | wind direction | speed KPH | gust KPH | rain 1hr cm | rain 24hr cm | rain mn cm | humidity % | barometer mb |
| 20260507030051 | 11 | 292 | 1.6 | 14.5 | 0.00 | 0.00 | 0.00 | 25 | 1020.3 |
| 20260507024557 | 12 | 335 | 3.2 | 16.1 | 0.00 | 0.00 | 0.00 | 25 | 1019.9 |
| 20260507023052 | 12 | 296 | 3.2 | 14.5 | 0.00 | 0.00 | 0.00 | 24 | 1020.0 |
| 20260507021601 | 12 | 343 | 4.8 | 16.1 | 0.00 | 0.00 | 0.00 | 24 | 1019.7 |
| 20260507020054 | 13 | 342 | 3.2 | 9.7 | 0.00 | 0.00 | 0.00 | 25 | 1019.7 |
| 20260507014555 | 13 | 355 | 1.6 | 9.7 | 0.00 | 0.00 | 0.00 | 24 | 1019.5 |
| 20260507013103 | 15 | 30 | 3.2 | 16.1 | 0.00 | 0.00 | 0.00 | 22 | 1019.3 |
| 20260507011553 | 16 | 63 | 3.2 | 16.1 | 0.00 | 0.00 | 0.00 | 21 | 1019.3 |
| 20260507010056 | 16 | 5 | 4.8 | 19.3 | 0.00 | 0.00 | 0.00 | 20 | 1019.2 |
| 20260507004554 | 17 | 80 | 4.8 | 17.7 | 0.00 | 0.00 | 0.00 | 19 | 1019.1 |
| 20260507003057 | 17 | 53 | 4.8 | 24.1 | 0.00 | 0.00 | 0.00 | 22 | 1019.1 |
| 20260507001610 | 17 | 78 | 4.8 | 19.3 | 0.00 | 0.00 | 0.00 | 20 | 1018.9 |
| 20260507000054 | 17 | 350 | 8.0 | 19.3 | 0.00 | 0.00 | 0.00 | 18 | 1018.8 |
| 20260506234601 | 17 | 42 | 4.8 | 24.1 | 0.00 | 0.00 | 0.00 | 18 | 1018.6 |
| 20260506233053 | 18 | 331 | 6.4 | 19.3 | 0.00 | 0.00 | 0.00 | 19 | 1018.7 |
| 20260506231556 | 18 | 348 | 6.4 | 24.1 | 0.00 | 0.00 | 0.00 | 21 | 1018.6 |
| 20260506230056 | 18 | 15 | 4.8 | 24.1 | 0.00 | 0.00 | 0.00 | 22 | 1018.6 |
| 20260506224606 | 18 | 338 | 4.8 | 20.9 | 0.00 | 0.00 | 0.00 | 22 | 1018.6 |
| 20260506223058 | 18 | 51 | 4.8 | 17.7 | 0.00 | 0.00 | 0.00 | 22 | 1018.7 |
| 20260506221552 | 18 | 30 | 8.0 | 20.9 | 0.00 | 0.00 | 0.00 | 22 | 1018.7 |
| 20260506220106 | 18 | 355 | 6.4 | 22.5 | 0.00 | 0.00 | 0.00 | 23 | 1018.8 |
| 20260506214555 | 18 | 355 | 4.8 | 20.9 | 0.00 | 0.00 | 0.00 | 24 | 1018.7 |
| 20260506213055 | 18 | 351 | 4.8 | 25.7 | 0.00 | 0.00 | 0.00 | 25 | 1018.8 |
| 20260506211557 | 18 | 86 | 9.7 | 24.1 | 0.00 | 0.00 | 0.00 | 26 | 1018.7 |
| 20260506210055 | 17 | 329 | 8.0 | 30.6 | 0.00 | 0.00 | 0.00 | 27 | 1018.8 |
| 20260506204554 | 17 | 360 | 6.4 | 27.4 | 0.00 | 0.00 | 0.00 | 28 | 1018.7 |
| 20260506203058 | 17 | 9 | 6.4 | 22.5 | 0.00 | 0.00 | 0.00 | 29 | 1018.6 |
| 20260506201553 | 17 | 70 | 8.0 | 25.7 | 0.00 | 0.00 | 0.00 | 31 | 1018.4 |
| 20260506200052 | 17 | 5 | 9.7 | 27.4 | 0.00 | 0.00 | 0.00 | 35 | 1018.5 |
| 20260506194554 | 18 | 336 | 6.4 | 20.9 | 0.00 | 0.00 | 0.00 | 32 | 1018.6 |
| 20260506193053 | 17 | 343 | 9.7 | 27.4 | 0.00 | 0.00 | 0.00 | 35 | 1018.4 |
| 20260506191551 | 17 | 330 | 9.7 | 24.1 | 0.00 | 0.00 | 0.00 | 36 | 1018.4 |
| 20260506190047 | 18 | 36 | 6.4 | 22.5 | 0.00 | 0.00 | 0.00 | 37 | 1018.4 |
| 20260506184549 | 17 | 5 | 9.7 | 27.4 | 0.00 | 0.00 | 0.00 | 34 | 1018.4 |
| 20260506183100 | 17 | 5 | 4.8 | 20.9 | 0.00 | 0.00 | 0.00 | 37 | 1018.4 |
| 20260506181600 | 16 | 319 | 6.4 | 17.7 | 0.00 | 0.00 | 0.00 | 41 | 1018.4 |
| 20260506180050 | 16 | 98 | 4.8 | 17.7 | 0.00 | 0.00 | 0.00 | 41 | 1018.3 |
| 20260506174551 | 16 | 53 | 6.4 | 24.1 | 0.00 | 0.00 | 0.00 | 41 | 1018.4 |
| 20260506173121 | 15 | 360 | 6.4 | 24.1 | 0.00 | 0.00 | 0.00 | 43 | 1018.3 |
| 20260506171601 | 15 | 355 | 4.8 | 19.3 | 0.00 | 0.00 | 0.00 | 43 | 1018.0 |
| 20260506170058 | 15 | 54 | 6.4 | 24.1 | 0.00 | 0.00 | 0.00 | 44 | 1018.0 |
| 20260506164550 | 13 | 346 | 4.8 | 19.3 | 0.00 | 0.00 | 0.00 | 48 | 1017.8 |
| 20260506163051 | 13 | 343 | 1.6 | 11.3 | 0.00 | 0.00 | 0.00 | 45 | 1017.8 |
| 20260506161555 | 13 | 32 | 3.2 | 9.7 | 0.00 | 0.00 | 0.00 | 45 | 1017.6 |
| 20260506160107 | 12 | 26 | 0.0 | 6.4 | 0.00 | 0.00 | 0.00 | 50 | 1017.6 |
| 20260506154551 | 11 | 0 | 0.0 | 3.2 | 0.00 | 0.00 | 0.00 | 50 | 1017.6 |
| 20260506153050 | 11 | 0 | 0.0 | 4.8 | 0.00 | 0.00 | 0.00 | 49 | 1017.4 |
| 20260506151555 | 10 | 0 | 0.0 | 3.2 | 0.00 | 0.00 | 0.00 | 49 | 1017.2 |
| 20260506150052 | 10 | 0 | 0.0 | 6.4 | 0.00 | 0.00 | 0.00 | 50 | 1017.0 |
| 20260506144554 | 9 | 313 | 0.0 | 4.8 | 0.00 | 0.00 | 0.00 | 51 | 1017.0 |
| 20260506143053 | 8 | 0 | 0.0 | 1.6 | 0.00 | 0.00 | 0.00 | 53 | 1016.8 |
| 20260506141554 | 8 | 0 | 0.0 | 1.6 | 0.00 | 0.00 | 0.00 | 52 | 1016.7 |
| 20260506140053 | 8 | 0 | 0.0 | 3.2 | 0.00 | 0.00 | 0.00 | 54 | 1016.5 |
| 20260506134603 | 8 | 0 | 0.0 | 3.2 | 0.00 | 0.00 | 0.00 | 54 | 1016.1 |
| 20260506133058 | 7 | 242 | 1.6 | 4.8 | 0.00 | 0.00 | 0.00 | 53 | 1016.1 |
| 20260506131600 | 7 | 242 | 0.0 | 3.2 | 0.00 | 0.00 | 0.00 | 53 | 1015.8 |
| 20260506130056 | 7 | 242 | 3.2 | 8.0 | 0.00 | 0.00 | 0.00 | 52 | 1015.6 |
| 20260506124600 | 7 | 244 | 3.2 | 8.0 | 0.00 | 0.00 | 0.00 | 52 | 1015.3 |
| 20260506123054 | 6 | 229 | 1.6 | 6.4 | 0.00 | 0.00 | 0.00 | 53 | 1014.9 |
| 20260506121552 | 7 | 0 | 0.0 | 1.6 | 0.00 | 0.00 | 0.00 | 52 | 1014.4 |
| 20260506120056 | 7 | 344 | 1.6 | 8.0 | 0.00 | 0.00 | 0.00 | 51 | 1014.6 |
| 20260506114553 | 7 | 265 | 0.0 | 4.8 | 0.00 | 0.00 | 0.00 | 51 | 1014.3 |
| 20260506113054 | 7 | 265 | 0.0 | 3.2 | 0.00 | 0.00 | 0.00 | 53 | 1014.1 |
| 20260506111558 | 7 | 265 | 1.6 | 4.8 | 0.00 | 0.00 | 0.00 | 51 | 1014.1 |
| 20260506110055 | 7 | 250 | 0.0 | 6.4 | 0.00 | 0.00 | 0.00 | 50 | 1014.0 |
| 20260506104557 | 7 | 236 | 0.0 | 4.8 | 0.00 | 0.00 | 0.00 | 49 | 1013.9 |
| 20260506103053 | 7 | 239 | 3.2 | 11.3 | 0.00 | 0.00 | 0.00 | 47 | 1013.8 |
| 20260506101551 | 7 | 0 | 0.0 | 4.8 | 0.00 | 0.00 | 0.00 | 48 | 1013.8 |
| 20260506100050 | 7 | 196 | 0.0 | 8.0 | 0.00 | 0.00 | 0.00 | 47 | 1013.8 |
| 20260506094609 | 8 | 0 | 0.0 | 6.4 | 0.00 | 0.00 | 0.00 | 46 | 1013.6 |
| 20260506093051 | 8 | 0 | 3.2 | 12.9 | 0.00 | 0.00 | 0.00 | 45 | 1013.5 |
| 20260506091553 | 8 | 149 | 0.0 | 4.8 | 0.00 | 0.00 | 0.00 | 46 | 1013.4 |
| 20260506090051 | 8 | 0 | 0.0 | 8.0 | 0.00 | 0.00 | 0.00 | 44 | 1013.4 |
| 20260506084551 | 8 | 0 | 0.0 | 9.7 | 0.00 | 0.00 | 0.00 | 44 | 1013.2 |
| 20260506083053 | 8 | 160 | 4.8 | 11.3 | 0.00 | 0.00 | 0.00 | 43 | 1013.1 |
| 20260506081554 | 9 | 218 | 0.0 | 3.2 | 0.00 | 0.00 | 0.00 | 44 | 1013.2 |
| 20260506073051 | 10 | 0 | 1.6 | 9.7 | 0.00 | 0.00 | 0.00 | 39 | 1013.0 |
| 20260506071554 | 11 | 207 | 1.6 | 19.3 | 0.00 | 0.00 | 0.00 | 37 | 1012.7 |
| 20260506061557 | 11 | 199 | 8.0 | 19.3 | 0.00 | 0.00 | 0.00 | 35 | 1012.3 |
| 20260506060109 | 11 | 242 | 6.4 | 22.5 | 0.00 | 0.00 | 0.00 | 36 | 1012.2 |
| 20260506044607 | 11 | 0 | 1.6 | 16.1 | 0.00 | 0.00 | 0.00 | 39 | 1012.0 |
| 20260506043054 | 11 | 266 | 6.4 | 17.7 | 0.00 | 0.00 | 0.00 | 40 | 1012.0 |
| 20260506041602 | 11 | 249 | 4.8 | 16.1 | 0.00 | 0.00 | 0.00 | 39 | 1011.8 |
| 20260506040054 | 11 | 282 | 3.2 | 11.3 | 0.00 | 0.00 | 0.00 | 38 | 1011.9 |
| 20260506034549 | 12 | 304 | 4.8 | 17.7 | 0.00 | 0.00 | 0.00 | 38 | 1011.5 |
| 20260506033051 | 11 | 0 | 1.6 | 12.9 | 0.00 | 0.00 | 0.00 | 37 | 1011.1 |
| 20260506031557 | 11 | 238 | 0.0 | 3.2 | 0.00 | 0.00 | 0.00 | 36 | 1010.8 |